[[{"header":{"parameterUnit":"m.s-1","parameterCategory":1,"la1":30.2991,"la2":30.254,"lo1":-89.0895,"lo2":-89.0444,"dy":0.0017,"dx":0.0017,"nx":28,"ny":28,"refTime":"2023-07-26T03:00:00:Z","depth":0,"parameterNumber":2,"parameterNumberName":"U-component_of_WINDS"},"data":[0,0,0,0,0,0,0,0,0,0,0,0,0,0,0,0,0,0,0,0,0,0,0,0,0,0,0,0,0,0,0,0,0,0,0,0,0,0,0,0,0,0,0,0,0,0,0,0,0,0,0,0,0,0,0,0,0,0,-1.1791,-1.1789,0,-1.1647,-1.1645,-1.1644,-1.1617,-1.1618,-1.1619,-1.162,-1.147,-1.1465,-1.146,0,0,0,0,0,0,0,0,0,0,0,0,0,-1.204,-1.2035,-1.1791,-1.1789,-1.1787,-1.1647,-1.1645,-1.1643,-1.1617,-1.1618,-1.162,-1.1621,-1.1472,-1.1466,-1.1459,0,0,0,0,0,0,0,0,0,0,0,0,0,-1.1917,-1.2034,-1.1791,-1.1757,-1.1753,-1.1648,-1.1645,-1.1643,-1.1616,-1.1618,-1.162,-1.1622,-1.1474,-1.1466,-1.1459,-1.1376,0,0,-1.1435,-1.1432,0,0,0,0,0,0,0,0,-1.1924,-1.1908,-1.1764,-1.1759,-1.1754,-1.1652,-1.1678,-1.1553,-1.1616,-1.1668,-1.162,-1.1622,-1.1529,-1.1517,-1.1486,-1.1369,-1.1363,-1.1435,-1.143,-1.1427,-1.1425,0,0,0,0,0,0,0,-1.1933,-1.1914,-1.1734,-1.1762,-1.1756,-1.1748,-1.1733,-1.1654,-1.159,-1.1664,-1.1661,-1.1645,-1.1526,-1.1493,-1.1482,-1.1361,-1.1435,-1.1428,-1.1423,-1.142,-1.1171,-1.1169,0,0,0,0,0,0,-1.1948,-1.1921,-1.1738,-1.1729,-1.1845,-1.1742,-1.1725,-1.1683,-1.1591,-1.1579,-1.1644,-1.1644,-1.1505,-1.1491,-1.1477,-1.1375,-1.1427,-1.142,-1.1415,-1.1173,-1.117,-1.1168,0,0,0,0,0,0,-1.1953,-1.1932,-1.1744,-1.1825,-1.18,-1.1736,-1.1689,-1.1679,-1.1646,-1.1576,-1.1564,-1.1622,-1.1506,-1.1487,-1.1402,-1.1369,-1.1416,-1.1409,-1.1175,-1.1172,-1.1169,-1.1171,0,0,0,0,0,0,-1.196,-1.1934,-1.1902,-1.1824,-1.1796,-1.1672,-1.1687,-1.1675,-1.1633,-1.1633,-1.1552,-1.154,-1.1506,-1.1414,-1.1394,-1.136,-1.1403,-1.1178,-1.1174,-1.117,-1.1173,-1.1168,-1.1164,0,0,0,0,0,-1.1969,-1.1907,-1.1901,-1.1879,-1.1756,-1.1671,-1.1654,-1.1617,-1.1631,-1.1598,-1.1554,-1.1543,-1.1376,-1.1405,-1.1383,-1.1346,-1.118,-1.1175,-1.1171,-1.1175,-1.1169,-1.1164,0,0,0,0,0,0,-1.1981,-1.1896,-1.1888,-1.1799,-1.1743,-1.1666,-1.1624,-1.1611,-1.1549,-1.1551,-1.1506,-1.1488,-1.1406,-1.1367,-1.1401,-1.1262,-1.1279,-1.127,-1.129,-1.1283,-1.1279,-1.1289,-1.1397,0,0,0,0,0,-1.1974,-1.1913,-1.1842,-1.177,-1.1742,-1.1688,-1.165,-1.1626,-1.1565,-1.1541,-1.149,-1.143,-1.1364,-1.1322,-1.1257,-1.1168,-1.115,-1.1132,-1.1127,-1.1123,-1.1115,-1.1066,-1.1057,-1.1153,-1.1153,-1.1153,0,0,-1.1957,-1.1903,-1.1867,-1.1771,-1.1724,-1.1662,-1.1668,-1.1601,-1.1554,-1.153,-1.1447,-1.1408,-1.1338,-1.1251,-1.121,-1.1216,-1.1085,-1.1117,-1.1115,-1.1109,-1.1061,-1.1052,-1.1044,-1.115,-1.115,-1.1151,0,0,-1.1895,-1.1848,-1.1784,-1.1737,-1.1667,-1.1632,-1.1617,-1.1543,-1.1516,-1.1432,-1.1414,-1.1357,-1.1244,-1.1196,-1.1157,-1.1079,-1.1067,-1.1059,-1.1033,-1.0986,-1.0978,-1.0971,-1.0943,-1.0934,-1.1052,-1.1051,-1.1051,0,-1.1882,-1.1788,-1.1752,-1.1686,-1.1645,-1.1622,-1.1557,-1.1513,-1.1425,-1.1397,-1.1406,-1.1265,-1.1217,-1.1118,-1.1099,-1.1068,-1.1049,-1.1067,-1.0982,-1.0975,-1.0968,-1.0941,-1.0931,-1.1051,-1.1051,-1.1051,-1.1051,0,-1.1777,-1.1712,-1.1668,-1.1586,-1.1539,-1.1474,-1.1427,-1.1384,-1.1366,-1.133,-1.1245,-1.1186,-1.111,-1.1085,-1.1065,-1.0984,-1.099,-1.0991,-1.1007,-1.0959,-1.0933,-1.0922,-1.105,-1.105,-1.1051,-1.1051,0,0,-1.1716,-1.1616,-1.16,-1.1563,-1.1485,-1.1434,-1.1368,-1.1295,-1.126,-1.12,-1.1143,-1.105,-1.1051,-1.1007,-1.0981,-1.094,-1.0882,-1.0946,-1.0943,-1.0936,-1.0789,-1.0789,-1.0778,-1.0874,-1.0872,-1.0871,-1.0795,0,-1.1644,-1.1527,-1.1493,-1.1394,-1.1333,-1.1312,-1.1255,-1.1201,-1.1166,-1.1109,-1.107,-1.1004,-1.1011,-1.0984,-1.0942,-1.0898,-1.0852,-1.0903,-1.0821,-1.0818,-1.0838,-1.0764,-1.0763,-1.0695,-1.0785,-1.0783,-1.0782,0,-1.1544,-1.1485,-1.138,-1.1311,-1.1285,-1.1234,-1.1165,-1.1111,-1.105,-1.1027,-1.0979,-1.0958,-1.0888,-1.0909,-1.0812,-1.0848,-1.0812,-1.0786,-1.0782,-1.0772,-1.0797,-1.0752,-1.0672,-1.0662,-1.0765,-1.0767,-1.0768,0,-1.151,-1.1404,-1.1328,-1.1297,-1.1215,-1.118,-1.1144,-1.1084,-1.1043,-1.0983,-1.0956,-1.0888,-1.085,-1.0798,-1.0759,-1.0778,-1.0666,-1.0683,-1.0645,-1.0646,-1.0621,-1.0623,-1.0534,-1.0599,-1.0599,-1.06,-1.06,0,-1.1433,-1.137,-1.1312,-1.1265,-1.1194,-1.1156,-1.1086,-1.1049,-1.0997,-1.0942,-1.092,-1.0868,-1.0821,-1.0763,-1.0732,-1.0657,-1.064,-1.062,-1.0612,-1.0622,-1.0624,-1.0597,-1.0601,-1.0597,-1.0597,-1.0598,-1.0598,0,-1.1383,-1.1342,-1.1258,-1.1188,-1.1169,-1.112,-1.1059,-1.1013,-1.0978,-1.0909,-1.0891,-1.0836,-1.0767,-1.0724,-1.0636,-1.0615,-1.0533,-1.0527,-1.0554,-1.0551,-1.0515,-1.0519,-1.0405,-1.0388,-1.0465,-1.0464,-1.0464,0,-1.1337,-1.1288,-1.1213,-1.1176,-1.114,-1.108,-1.1038,-1.1,-1.0957,-1.0885,-1.0847,-1.0778,-1.072,-1.0611,-1.0563,-1.0496,-1.0488,-1.0453,-1.0478,-1.0489,-1.0488,-1.0491,-1.0486,-1.0448,-1.0448,-1.0447,-1.0447,0,-1.1258,-1.1241,-1.1183,-1.1118,-1.1069,-1.1016,-1.0962,-1.0933,-1.0885,-1.0838,-1.0769,-1.0724,-1.0636,-1.0567,-1.0497,-1.0459,-1.0445,-1.044,-1.0427,-1.0436,-1.0454,-1.0444,-1.0543,-1.0442,-1.0443,-1.0443,-1.0443,-1.0443,-1.1208,-1.1164,-1.1106,-1.1042,-1.0998,-1.0949,-1.0903,-1.0863,-1.0805,-1.0731,-1.0712,-1.0639,-1.058,-1.0484,-1.0445,-1.0387,-1.0392,-1.0374,-1.0369,-1.0365,-1.0365,-1.0464,-1.0374,-1.0374,-1.0374,-1.0374,-1.0375,0,-1.1129,-1.1091,-1.1033,-1.096,-1.091,-1.0903,-1.0844,-1.0802,-1.0739,-1.0686,-1.063,-1.0551,-1.0485,-1.0432,-1.0364,-1.0328,-1.032,-1.0311,-1.0313,-1.0305,-1.0365,-1.0382,-1.0319,-1.0319,-1.0319,-1.0319,-1.0319,-1.0319,-1.1081,-1.1007,-1.0983,-1.0887,-1.0849,-1.0779,-1.0746,-1.0701,-1.0659,-1.0572,-1.0517,-1.0484,-1.0431,-1.0359,-1.0298,-1.0285,-1.026,-1.0253,-1.0238,-1.0295,-1.0301,-1.0306,-1.0323,-1.0248,-1.0248,-1.0183,-1.0183,-1.0182]},{"header":{"parameterUnit":"m.s-1","parameterCategory":1,"la1":30.2991,"la2":30.254,"lo1":-89.0895,"lo2":-89.0444,"dy":0.0017,"dx":0.0017,"nx":28,"ny":28,"refTime":"2023-07-26T03:00:00:Z","depth":0,"parameterNumber":3,"parameterNumberName":"V-component_of_WINDS"},"data":[0,0,0,0,0,0,0,0,0,0,0,0,0,0,0,0,0,0,0,0,0,0,0,0,0,0,0,0,0,0,0,0,0,0,0,0,0,0,0,0,0,0,0,0,0,0,0,0,0,0,0,0,0,0,0,0,0,0,2.3856,2.3855,0,2.3809,2.3809,2.3808,2.3825,2.3826,2.3827,2.3828,2.3775,2.3773,2.377,0,0,0,0,0,0,0,0,0,0,0,0,0,2.3955,2.3953,2.3856,2.3855,2.3855,2.3809,2.3809,2.3808,2.3825,2.3826,2.3827,2.3829,2.3776,2.3773,2.377,0,0,0,0,0,0,0,0,0,0,0,0,0,2.391,2.3952,2.3856,2.3858,2.3858,2.3809,2.3808,2.3808,2.3824,2.3826,2.3828,2.3829,2.3777,2.3773,2.377,2.3715,0,0,2.3759,2.3757,0,0,0,0,0,0,0,0,2.3913,2.3907,2.3858,2.3858,2.3857,2.3825,2.3824,2.3777,2.3824,2.3837,2.3828,2.383,2.379,2.3785,2.3773,2.3713,2.3711,2.3758,2.3756,2.3755,2.3754,0,0,0,0,0,0,0,2.3916,2.3909,2.3837,2.3857,2.3857,2.3859,2.3855,2.3815,2.3805,2.3836,2.3837,2.3831,2.379,2.3776,2.3772,2.371,2.3758,2.3755,2.3753,2.3752,2.3601,2.3599,0,0,0,0,0,0,2.392,2.3911,2.3839,2.3836,2.389,2.3856,2.3851,2.3833,2.3805,2.3803,2.383,2.3832,2.3782,2.3776,2.377,2.3703,2.3755,2.3751,2.3749,2.3603,2.3601,2.3599,0,0,0,0,0,0,2.3922,2.3913,2.3841,2.3874,2.3865,2.3853,2.3833,2.3832,2.3818,2.3801,2.3799,2.3818,2.3783,2.3775,2.3729,2.3701,2.375,2.3746,2.3605,2.3602,2.36,2.3569,0,0,0,0,0,0,2.3925,2.3914,2.3894,2.3873,2.3863,2.3801,2.3831,2.3829,2.3812,2.3815,2.3789,2.3787,2.3783,2.3734,2.3725,2.3697,2.3743,2.3607,2.3604,2.36,2.3572,2.3565,2.3559,0,0,0,0,0,2.3928,2.3887,2.3893,2.3884,2.3838,2.38,2.3794,2.3792,2.381,2.3789,2.3778,2.3787,2.3706,2.3729,2.3719,2.369,2.3609,2.3605,2.3601,2.3575,2.3567,2.356,0,0,0,0,0,0,2.3903,2.3884,2.3891,2.3842,2.3823,2.3803,2.3777,2.3784,2.3758,2.3761,2.3759,2.3753,2.3705,2.3693,2.3719,2.3635,2.366,2.3654,2.3644,2.3636,2.363,2.3632,2.374,0,0,0,0,0,2.3892,2.3864,2.3848,2.3806,2.3797,2.3788,2.3772,2.3772,2.3751,2.3743,2.3729,2.3707,2.3676,2.3656,2.3627,2.3572,2.3565,2.3546,2.354,2.3535,2.3528,2.3496,2.3487,2.3585,2.3585,2.3585,0,0,2.3868,2.3854,2.3836,2.3801,2.3786,2.3755,2.3781,2.3748,2.3724,2.3737,2.3692,2.3681,2.3657,2.3605,2.3582,2.3594,2.35,2.353,2.3526,2.3522,2.3491,2.3482,2.3473,2.3582,2.3583,2.3583,0,0,2.3808,2.3797,2.3759,2.3744,2.3722,2.3717,2.3708,2.3688,2.3681,2.3637,2.3646,2.3617,2.3565,2.3547,2.353,2.3464,2.3471,2.3455,2.3421,2.3389,2.3382,2.3375,2.3348,2.3339,2.3449,2.3449,2.3449,0,2.3781,2.3737,2.3739,2.3705,2.3688,2.3701,2.3661,2.3646,2.3615,2.3602,2.3617,2.3551,2.3536,2.3479,2.3463,2.3451,2.3438,2.3456,2.3383,2.3376,2.3369,2.3344,2.3335,2.3447,2.3448,2.3448,2.3448,0,2.3703,2.3672,2.3644,2.3615,2.3596,2.3559,2.3554,2.3534,2.3537,2.3529,2.3483,2.3465,2.3432,2.3419,2.3421,2.3362,2.337,2.3384,2.3409,2.3358,2.3334,2.3325,2.3445,2.3445,2.3446,2.3446,0,0,2.3624,2.3597,2.3587,2.3573,2.355,2.3525,2.3489,2.3458,2.3439,2.3418,2.3386,2.3342,2.3354,2.3336,2.3336,2.3309,2.3255,2.3326,2.3325,2.3311,2.3186,2.3174,2.3163,2.326,2.3259,2.3257,2.3187,0,2.356,2.3498,2.3499,2.344,2.341,2.3422,2.339,2.3371,2.3364,2.3336,2.3328,2.3295,2.3316,2.3304,2.3278,2.3267,2.3229,2.3272,2.3227,2.3226,2.323,2.3151,2.3138,2.3072,2.3178,2.3177,2.3176,0,2.3477,2.3454,2.3393,2.3373,2.3361,2.3332,2.3303,2.3278,2.3256,2.3252,2.3232,2.3237,2.3197,2.3226,2.3171,2.32,2.3182,2.3174,2.3171,2.3164,2.3195,2.3139,2.3052,2.3041,2.3162,2.3163,2.3164,0,2.3422,2.3376,2.3333,2.3321,2.3298,2.3277,2.3266,2.3247,2.3228,2.3203,2.319,2.316,2.3143,2.3119,2.3114,2.3136,2.3058,2.3087,2.3051,2.3051,2.3032,2.3033,2.2938,2.3025,2.3026,2.3026,2.3026,0,2.335,2.3311,2.3308,2.3281,2.3237,2.3239,2.3195,2.3185,2.3168,2.3138,2.3147,2.3118,2.3116,2.3085,2.3082,2.3035,2.3028,2.3022,2.3021,2.3019,2.302,2.3005,2.3008,2.3023,2.3024,2.3024,2.3025,0,2.3279,2.3276,2.323,2.3212,2.3207,2.3175,2.3159,2.3132,2.3127,2.3089,2.308,2.307,2.3035,2.3029,2.2987,2.2985,2.2928,2.2933,2.2935,2.2935,2.2899,2.2901,2.2789,2.2773,2.2874,2.2873,2.2872,0,2.3232,2.3202,2.3182,2.3163,2.3152,2.3122,2.3103,2.3103,2.3083,2.3056,2.3032,2.2999,2.2972,2.2915,2.2902,2.287,2.2873,2.2836,2.2868,2.2867,2.2869,2.2869,2.2865,2.2828,2.2827,2.2826,2.2826,0,2.3146,2.3146,2.312,2.3092,2.307,2.3048,2.3027,2.3011,2.3009,2.2985,2.295,2.2929,2.2888,2.2853,2.2821,2.2808,2.2815,2.2816,2.2806,2.2802,2.2804,2.28,2.2915,2.2818,2.2819,2.2819,2.282,2.282,2.3084,2.3058,2.3039,2.3009,2.2994,2.2974,2.2948,2.2939,2.2911,2.2878,2.288,2.2841,2.2819,2.2778,2.2762,2.2731,2.2742,2.2728,2.2724,2.2719,2.2714,2.2812,2.2725,2.2725,2.2726,2.2726,2.2726,0,2.2997,2.2986,2.2958,2.2929,2.2905,2.2917,2.2894,2.2872,2.2839,2.2819,2.2792,2.2751,2.2718,2.2704,2.2671,2.2648,2.265,2.2639,2.2639,2.2635,2.2707,2.2718,2.2637,2.2637,2.2637,2.2637,2.2637,2.2637,2.2948,2.2904,2.2901,2.2849,2.2838,2.2801,2.2787,2.2768,2.2752,2.2706,2.2679,2.2671,2.2653,2.2619,2.2588,2.2585,2.257,2.2557,2.2554,2.2621,2.263,2.2639,2.2649,2.2554,2.2554,2.2484,2.2484,2.2483]}]]